Flag for Norway Weather past 2 weeks in Sarpsborg, Norway

Now
55 °F

Light rain. Overcast.


Feels Like: 52 °F
Forecast: 53 / 61 °F
Wind: 15 mph from Northeast

Location: Rygge

Current Time: Sep 2, 2015 at 1:32:50 AM

Latest Report: Sep 2, 2015 at 12:50 AM


Visibility: N/A

Pressure: 29.68 "Hg

Humidity: 94%

Dew point: 54 °F

Location of SarpsborgLocation

Historic Weather in Sarpsborg — Graph

°F

Sarpsborg temperature yesterday

Maximum temperature yesterday: 57 °F (at 3:50 AM)
Minimum temperature yesterday: 55 °F (at 12:20 AM)
Average temperature yesterday: 56 °F

Past Weeks' High & Low Weather Summary

 TemperatureHumidityPressure
High77 °F (Aug 23, 2:50 PM)100% (Aug 21, 5:20 AM)30.39 "Hg (Aug 21, 5:20 AM)
Low45 °F (Aug 22, 5:20 AM)32% (Aug 23, 3:20 PM)29.53 "Hg (Aug 27, 2:20 PM)
Average61 °F76%30.02 "Hg
* Reported Aug 17 11:20 PM — Sep 1 11:20 PM, Sarpsborg, Weather by CustomWeather, © 2015

Note: Actual official high and low records may vary slightly from our data, if they occured in-between our weather recording intervals... More about our weather records

Advertising

Sarpsborg weather history for previous 24 hours

 ConditionsComfort  
Time TempWeatherWind HumidityBarometerVisibility
11:20 PM
Tue, Sep 1
55 °FRain. Passing clouds.13 mph94%29.71 "Hg4 mi
10:50 PM55 °FLight rain. Passing clouds.16 mph94%29.74 "Hg4 mi
10:20 PM55 °FLight rain. Partly cloudy.14 mph94%29.74 "Hg4 mi
9:50 PM55 °FRain. Partly cloudy.13 mph94%29.77 "Hg5 mi
9:20 PM55 °FRain. Passing clouds.14 mph94%29.77 "Hg4 mi
8:20 PM55 °FRain. Broken clouds.13 mph94%29.77 "Hg4 mi
7:50 PM55 °FDrizzle. Broken clouds.12 mph94%29.80 "Hg4 mi
7:20 PM55 °FRain. Broken clouds.10 mph94%29.80 "Hg2 mi
6:50 PM55 °FLight rain. Broken clouds.13 mph94%29.80 "Hg2 mi
6:20 PM55 °FLight rain. Broken clouds.13 mph94%29.80 "Hg4 mi
5:50 PM55 °FRain. Partly sunny.10 mph100%29.80 "Hg4 mi
5:20 PM55 °FRain. Broken clouds.13 mph94%29.80 "Hg2 mi
4:50 PM55 °FLight rain. Broken clouds.12 mph94%29.83 "HgN/A
4:20 PM55 °FLight rain. Broken clouds.9 mph94%29.83 "Hg5 mi
3:50 PM55 °FLight rain. Broken clouds.14 mph94%29.83 "Hg5 mi
3:20 PM55 °FRain. Partly sunny.14 mph94%29.83 "Hg4 mi
2:50 PM55 °FLight rain. Partly sunny.12 mph100%29.83 "Hg5 mi
2:20 PM55 °FLight rain. Partly sunny.12 mph94%29.83 "HgN/A
1:50 PM55 °FLight rain. Partly sunny.10 mph94%29.83 "Hg4 mi
1:20 PM55 °FRain. Scattered clouds.10 mph94%29.83 "Hg5 mi
12:50 PM55 °FRain. Partly sunny.9 mph94%29.86 "HgN/A
12:20 PM55 °FLight rain. Passing clouds.10 mph94%29.83 "HgN/A
11:50 AM55 °FLight rain. Scattered clouds.10 mph88%29.86 "HgN/A
11:20 AM55 °FLight rain. Scattered clouds.10 mph88%29.86 "HgN/A
10:50 AM55 °FLight rain. Scattered clouds.10 mph88%29.86 "HgN/A
10:20 AM55 °FLight rain. Scattered clouds.10 mph88%29.86 "HgN/A
9:50 AM55 °FLight rain. Scattered clouds.13 mph88%29.86 "HgN/A
9:20 AM55 °FScattered clouds.10 mph88%29.86 "HgN/A
8:50 AM55 °FPassing clouds.10 mph88%29.86 "HgN/A
8:20 AM55 °FPassing clouds.10 mph88%29.86 "HgN/A
7:50 AM55 °FSunny.8 mph94%29.86 "Hg10 mi
7:20 AM57 °FScattered clouds.8 mph88%29.86 "HgN/A
6:50 AM57 °FLight rain. Passing clouds.6 mph88%29.86 "HgN/A
5:20 AM57 °FCool.8 mph88%29.86 "HgN/A
4:50 AM57 °FCool.9 mph88%29.86 "HgN/A
4:20 AM55 °FCool.6 mph94%29.86 "HgN/A
3:50 AM57 °FCool.7 mph88%29.89 "HgN/A
3:20 AM55 °FPassing clouds.6 mph94%29.89 "HgN/A
2:50 AM55 °FPassing clouds.5 mph94%29.89 "HgN/A
2:20 AM55 °FPassing clouds.5 mph88%29.92 "HgN/A
1:50 AM55 °FMostly cloudy.5 mph88%29.92 "HgN/A
1:20 AM55 °FPassing clouds.3 mph88%29.92 "HgN/A
Weather by CustomWeather, © 2015

See weather overviewHow to use our weather pages